TimeEDT,TemperatureF,Dew PointF,Humidity,Sea Level PressureIn,VisibilityMPH,Wind Direction,Wind SpeedMPH,Gust SpeedMPH,PrecipitationIn,Events,Conditions,WindDirDegrees,DateUTC
12:52 AM,71.1,66.0,84,29.92,10.0,SSE,5.8,-,N/A,,Mostly Cloudy,150,2013-09-21 04:52:00
1:52 AM,69.1,66.0,90,29.92,10.0,SSE,4.6,-,N/A,,Clear,160,2013-09-21 05:52:00
2:52 AM,69.1,66.0,90,29.91,10.0,South,3.5,-,N/A,,Mostly Cloudy,180,2013-09-21 06:52:00
3:52 AM,69.1,66.0,90,29.90,10.0,SSE,4.6,-,N/A,,Mostly Cloudy,160,2013-09-21 07:52:00
4:52 AM,68.0,66.0,93,29.88,10.0,SSE,3.5,-,N/A,,Mostly Cloudy,160,2013-09-21 08:52:00
5:52 AM,66.9,64.9,93,29.87,10.0,South,3.5,-,N/A,,Mostly Cloudy,170,2013-09-21 09:52:00
6:52 AM,66.0,64.9,96,29.86,9.0,SSE,3.5,-,N/A,,Mostly Cloudy,160,2013-09-21 10:52:00
7:52 AM,68.0,66.0,93,29.87,7.0,South,5.8,-,N/A,,Mostly Cloudy,170,2013-09-21 11:52:00
8:52 AM,71.1,66.9,87,29.88,10.0,SW,8.1,-,N/A,,Overcast,220,2013-09-21 12:52:00
9:52 AM,72.0,66.0,81,29.88,10.0,SSW,12.7,16.1,N/A,,Overcast,210,2013-09-21 13:52:00
10:52 AM,73.0,66.0,79,29.87,10.0,SW,8.1,-,N/A,,Overcast,220,2013-09-21 14:52:00
11:52 AM,73.9,66.9,79,29.84,10.0,SSW,8.1,-,0.00,Rain,Light Rain,210,2013-09-21 15:52:00
12:52 PM,75.9,66.9,74,29.83,10.0,SSW,10.4,18.4,0.00,Rain,Light Rain,210,2013-09-21 16:52:00
1:52 PM,73.9,69.1,85,29.81,10.0,SSW,10.4,-,0.00,Rain,Light Rain,210,2013-09-21 17:52:00
2:52 PM,73.9,70.0,87,29.78,10.0,South,8.1,-,0.01,Rain,Light Rain,180,2013-09-21 18:52:00
3:52 PM,73.0,71.1,93,29.75,8.0,SSE,9.2,-,0.01,Rain,Light Rain,150,2013-09-21 19:52:00
4:52 PM,73.0,69.1,87,29.73,10.0,South,11.5,-,0.01,Rain,Light Rain,170,2013-09-21 20:52:00
5:52 PM,72.0,70.0,93,29.73,8.0,South,6.9,-,0.01,Rain,Light Rain,180,2013-09-21 21:52:00
6:52 PM,71.1,70.0,96,29.73,5.0,Calm,Calm,-,0.02,Rain,Rain,0,2013-09-21 22:52:00
7:52 PM,71.1,70.0,96,29.71,4.0,NNE,5.8,-,0.05,Rain,Light Rain,20,2013-09-21 23:52:00
8:08 PM,71.6,69.8,94,29.73,3.0,North,8.1,-,0.04,Rain,Heavy Rain,360,2013-09-22 00:08:00
8:18 PM,69.8,69.8,100,29.73,2.5,North,11.5,-,0.10,Rain,Heavy Rain,10,2013-09-22 00:18:00
8:52 PM,69.1,69.1,100,29.73,2.0,NE,5.8,-,0.51,Rain,Heavy Rain,40,2013-09-22 00:52:00
9:38 PM,66.2,66.2,100,29.74,2.0,NNE,12.7,-,0.79,Rain,Heavy Rain,30,2013-09-22 01:38:00
9:52 PM,66.9,66.9,100,29.71,3.0,NNE,16.1,-,0.98,Rain,Heavy Rain,30,2013-09-22 01:52:00
10:10 PM,66.2,66.2,100,29.72,3.0,NNE,13.8,-,0.14,Rain,Heavy Rain,30,2013-09-22 02:10:00
10:44 PM,66.2,66.2,100,29.71,2.5,NNE,16.1,21.9,0.34,Rain,Heavy Rain,20,2013-09-22 02:44:00
10:52 PM,66.0,66.0,100,29.69,2.0,NNE,16.1,-,0.43,Rain,Heavy Rain,20,2013-09-22 02:52:00
10:59 PM,66.2,66.2,100,29.71,2.0,NNE,17.3,25.3,0.07,Rain,Heavy Rain,20,2013-09-22 02:59:00
11:37 PM,66.2,64.4,94,29.70,2.0,North,17.3,27.6,0.34,Rain,Heavy Rain,10,2013-09-22 03:37:00
11:52 PM,64.9,64.9,100,29.69,2.5,NNE,19.6,27.6,0.44,Rain,Heavy Rain,20,2013-09-22 03:52:00